TimePST,TemperatureF,Dew PointF,Humidity,Sea Level PressureIn,VisibilityMPH,Wind Direction,Wind SpeedMPH,Gust SpeedMPH,PrecipitationIn,Events,Conditions,WindDirDegrees,DateUTC
12:56 AM,41.0,27.1,58,30.27,10.0,South,6.9,-,N/A,,Clear,170,2013-01-09 08:56:00
1:56 AM,38.8,27.1,63,30.27,10.0,SSE,9.2,-,N/A,,Clear,160,2013-01-09 09:56:00
2:56 AM,39.9,28.0,63,30.25,10.0,Calm,Calm,-,N/A,,Clear,0,2013-01-09 10:56:00
3:56 AM,37.9,28.0,68,30.25,10.0,South,8.1,-,N/A,,Clear,190,2013-01-09 11:56:00
4:56 AM,38.8,28.0,65,30.25,10.0,South,6.9,-,N/A,,Clear,190,2013-01-09 12:56:00
5:56 AM,36.0,27.1,70,30.26,10.0,South,6.9,-,N/A,,Clear,190,2013-01-09 13:56:00
7:56 AM,39.9,29.1,65,30.28,10.0,Calm,Calm,-,N/A,,Clear,0,2013-01-09 15:56:00
8:56 AM,45.9,31.1,56,30.29,10.0,Calm,Calm,-,N/A,,Clear,0,2013-01-09 16:56:00
9:56 AM,52.9,29.1,40,30.27,10.0,Calm,Calm,-,N/A,,Clear,0,2013-01-09 17:56:00
10:56 AM,54.9,28.0,36,30.22,10.0,Calm,Calm,-,N/A,,Clear,0,2013-01-09 18:56:00
11:56 AM,56.8,27.1,32,30.17,10.0,Calm,Calm,-,N/A,,Clear,0,2013-01-09 19:56:00
12:56 PM,59.0,27.1,30,30.14,10.0,Calm,Calm,-,N/A,,Clear,0,2013-01-09 20:56:00
1:56 PM,57.9,26.1,30,30.12,10.0,Calm,Calm,-,N/A,,Clear,0,2013-01-09 21:56:00
2:56 PM,59.0,26.1,28,30.10,10.0,Calm,Calm,-,N/A,,Clear,0,2013-01-09 22:56:00
3:56 PM,57.9,27.1,31,30.08,10.0,Calm,Calm,-,N/A,,Clear,0,2013-01-09 23:56:00
4:56 PM,54.0,27.1,36,30.06,10.0,Calm,Calm,-,N/A,,Clear,0,2013-01-10 00:56:00
5:56 PM,50.9,28.0,41,30.04,10.0,Calm,Calm,-,N/A,,Clear,0,2013-01-10 01:56:00
6:56 PM,48.2,28.4,46,30.00,10.0,Calm,Calm,-,N/A,,Clear,0,2013-01-10 02:56:00
7:56 PM,46.9,28.0,48,30.00,10.0,SSE,5.8,-,N/A,,Clear,160,2013-01-10 03:56:00
8:56 PM,45.0,28.0,52,29.97,10.0,Calm,Calm,-,N/A,,Clear,0,2013-01-10 04:56:00
9:56 PM,46.9,27.1,46,29.95,10.0,Variable,4.6,-,N/A,,Clear,0,2013-01-10 05:56:00
10:56 PM,43.9,28.0,54,29.92,10.0,Calm,Calm,-,N/A,,Clear,0,2013-01-10 06:56:00
11:56 PM,45.0,27.1,50,29.88,10.0,SSW,11.5,-,N/A,,Clear,210,2013-01-10 07:56:00